Home   Weather   Avebury   Past weeks
Flag for United Kingdom

Past Weather in Avebury, England, United Kingdom — Yesterday and Last 2 Weeks

Now
68 °F

Sunny.


Feels Like: 68 °F
Forecast: 68 / 47 °F
Wind: 3 mph from Southwest

Location: Brize Norton

Current Time: May 23, 2019 at 2:13:25 pm

Latest Report: May 23, 2019 at 12:50 pm


Visibility: 10 mi

Pressure: 30.01 "Hg

Humidity: 40%

Dew Point: 43 °F

Location of AveburyLocation

Past Weather in Avebury — Graph

°F

Avebury Temperature Yesterday

Maximum temperature yesterday: 68 °F (at 2:50 pm)
Minimum temperature yesterday: 46 °F (at 4:50 am)
Average temperature yesterday: 59 °F

High & Low Weather Summary for the Past Weeks

 TemperatureHumidityPressure
High68 °F (May 15, 2:50 pm)100% (May 8, 10:50 pm)30.72 "Hg (May 8, 10:50 pm)
Low39 °F (May 10, 3:50 am)30% (May 22, 3:50 pm)29.21 "Hg (May 8, 12:50 pm)
Average54 °F69%30.02 "Hg
* Reported May 8 12:50 pm — May 23 12:50 pm, Avebury. Weather by CustomWeather, © 2019

Note: Actual official high and low records may vary slightly from our data, if they occured in-between our weather recording intervals... More about our weather records

Advertising

Avebury Weather History for the Previous 24 Hours

Scroll right to see more
 ConditionsComfort  
Time TempWeatherWind HumidityBarometerVisibility
12:50 pm
Thu, May 23
68 °FSunny.3 mph40%30.01 "Hg10 mi
11:50 am66 °FSunny.3 mph43%30.01 "Hg10 mi
10:50 am64 °FPartly sunny.5 mph46%30.01 "HgN/A
9:50 am61 °FSunny.3 mph59%30.04 "Hg10 mi
8:50 am55 °FSunny.3 mph72%30.04 "Hg10 mi
7:50 am52 °FSunny.3 mph77%30.04 "Hg10 mi
6:50 am50 °FSunny.2 mph82%30.04 "Hg10 mi
5:50 am46 °FSunny.1 mph82%30.04 "Hg10 mi
4:50 am46 °FClear.2 mph87%30.04 "Hg10 mi
3:50 am48 °FClear.2 mph82%30.04 "Hg10 mi
2:50 am50 °FClear.3 mph76%30.04 "Hg10 mi
1:50 am50 °FClear.3 mph76%30.07 "Hg10 mi
12:50 am54 °FClear.3 mph67%30.07 "Hg10 mi
11:50 pm
Wed, May 22
55 °FClear.3 mph63%30.07 "Hg10 mi
10:50 pm59 °FClear.2 mph59%30.07 "Hg10 mi
9:50 pm61 °FClear.2 mph52%30.07 "Hg10 mi
8:50 pm63 °FSunny.1 mph49%30.04 "Hg10 mi
7:50 pm64 °FSunny.2 mph43%30.04 "Hg10 mi
6:50 pm68 °FSunny.6 mph35%30.04 "Hg10 mi
5:50 pm66 °FSunny.7 mph35%30.07 "Hg10 mi
4:50 pm68 °FSunny.7 mph38%30.07 "Hg10 mi
3:50 pm68 °FSunny.8 mph30%30.07 "Hg10 mi
2:50 pm68 °FSunny.6 mph33%30.09 "Hg10 mi
Weather by CustomWeather, © 2019

See weather overview